Date,TemperatureHighF,TemperatureAvgF,TemperatureLowF,DewpointHighF,DewpointAvgF,DewpointLowF,HumidityHigh,HumidityAvg,HumidityLow,PressureMaxIn,PressureMinIn,WindSpeedMaxMPH,WindSpeedAvgMPH,GustSpeedMaxMPH,PrecipitationSumIn
2013-1-3,74.0,71.6,70.0,69.0,67.3,64.0,93,86,76,0.00,40.00,23,20,32,0.18
2013-1-4,73.0,73.0,73.0,64.0,64.0,64.0,74,74,74,0.00,40.00,20,20,31,0.00
2013-1-14,72.0,70.9,69.0,70.0,67.5,65.0,94,89,84,0.00,40.00,13,8,23,0.33
2013-1-15,75.0,69.6,63.0,66.0,62.3,58.0,95,79,63,0.00,40.00,9,6,14,0.01
2013-1-16,76.0,66.7,60.0,65.0,59.2,55.0,88,78,60,0.00,40.00,13,6,18,0.00
2013-1-27,66.0,65.7,65.0,64.0,63.0,62.0,92,91,90,0.00,40.00,11,8,20,0.29
2013-1-28,71.0,67.3,64.0,68.0,65.8,63.0,97,94,88,0.00,40.00,15,7,21,2.10
2013-1-29,76.0,69.7,64.0,72.0,66.1,63.0,97,89,76,0.00,40.00,9,4,11,0.04
2013-1-30,76.0,70.5,65.0,69.0,66.2,64.0,97,87,74,0.00,40.00,9,5,12,0.02
2013-1-31,74.0,72.8,72.0,67.0,66.1,65.0,83,80,74,0.00,40.00,12,11,16,0.00
2013-2-6,72.0,71.5,70.0,67.0,66.8,66.0,91,86,83,0.00,40.00,16,14,26,0.00
2013-2-7,72.0,72.0,72.0,66.0,66.0,66.0,82,82,82,0.00,40.00,15,14,18,0.00
2013-2-23,74.0,74.0,74.0,68.0,68.0,68.0,82,82,82,0.00,40.00,19,19,31,0.00
2013-3-15,67.0,67.0,67.0,61.0,61.0,61.0,82,82,82,0.00,40.00,9,9,16,0.00
2013-3-16,75.0,69.1,67.0,61.0,43.4,-99.9,80,60,55,0.00,40.00,14,11,22,0.00
2013-3-19,75.0,72.1,65.0,64.0,62.7,61.0,87,73,65,0.00,40.00,14,8,18,0.00
2013-3-20,78.0,70.5,62.0,69.0,64.1,59.0,92,81,70,0.00,40.00,14,6,18,0.00
2013-3-21,78.0,72.4,63.0,72.0,67.3,60.0,90,84,75,0.00,40.00,16,7,19,0.00
2013-3-22,78.0,73.2,69.0,69.0,66.7,63.0,94,81,66,0.00,40.00,10,6,19,1.45
2013-3-23,73.0,66.7,67.0,67.0,56.4,-99.9,96,79,73,0.00,40.00,16,10,21,1.94
2013-3-24,72.0,63.4,69.0,68.0,49.0,-99.9,93,76,77,0.00,40.00,17,14,22,0.23
2013-3-25,76.0,66.1,69.0,69.0,17.7,-99.9,87,58,79,0.00,40.00,13,-90,16,0.01
2013-3-26,75.0,72.9,71.0,68.0,52.2,-99.9,91,75,75,0.00,40.00,10,8,13,0.00
2013-3-27,73.0,71.2,69.0,68.0,67.3,66.0,92,87,82,0.00,40.00,22,15,30,0.16
2013-3-29,73.0,60.0,71.0,63.0,8.4,-99.9,74,50,14,0.00,40.00,16,14,21,0.00
2013-3-30,76.0,66.6,66.0,65.0,30.0,-99.9,91,58,62,0.00,40.00,15,9,19,0.00
2013-3-31,74.0,69.8,67.0,56.0,52.2,50.0,61,54,47,0.00,40.00,14,12,21,0.00
2013-4-1,73.0,68.8,66.0,59.0,55.3,52.0,75,62,53,0.00,40.00,13,10,24,0.00
2013-4-2,73.0,69.7,67.0,58.0,54.6,52.0,68,59,50,0.00,40.00,11,8,17,0.00
2013-4-3,74.0,71.0,67.0,61.0,59.4,58.0,80,67,60,0.00,40.00,16,11,19,0.00
2013-4-4,76.0,68.7,65.0,66.0,57.1,-99.9,89,74,68,0.00,40.00,13,9,16,0.00
2013-4-5,77.0,73.7,71.0,68.0,58.7,-99.9,83,73,70,0.00,40.00,16,13,19,0.00
2013-4-6,78.0,75.3,73.0,72.0,70.6,69.0,90,85,80,0.00,40.00,18,15,25,0.00
2013-4-7,78.0,75.2,73.0,71.0,69.9,69.0,88,84,77,0.00,40.00,18,14,22,0.00
2013-4-8,77.0,70.8,72.0,69.0,60.1,-99.9,86,77,74,0.00,40.00,18,13,24,0.00
2013-4-9,78.0,75.1,72.0,69.0,67.5,66.0,84,78,72,0.00,40.00,15,14,22,0.01
2013-4-10,78.0,75.3,73.0,70.0,68.6,68.0,86,80,73,0.00,40.00,19,15,26,0.16
2013-4-11,78.0,75.3,70.0,72.0,69.1,67.0,90,81,75,0.00,40.00,18,13,24,0.00
2013-4-12,77.0,74.5,69.0,70.0,68.4,64.0,88,82,73,0.00,40.00,17,11,24,0.00
2013-4-13,78.0,72.5,68.0,71.0,68.1,64.0,94,86,71,0.00,40.00,15,7,22,0.32
2013-4-14,80.0,72.1,69.0,70.0,67.4,65.0,94,86,65,0.00,40.00,15,7,22,0.45
2013-4-15,76.0,71.6,69.0,71.0,68.7,67.0,96,91,81,0.00,40.00,12,4,18,0.33
2013-4-16,79.0,73.5,66.0,73.0,68.7,64.0,94,85,75,0.00,40.00,14,7,18,0.01
2013-4-17,79.0,75.8,74.0,71.0,69.0,67.0,85,80,75,0.00,40.00,17,15,23,0.00
2013-4-18,78.0,74.8,72.0,71.0,67.7,65.0,85,79,70,0.00,40.00,19,18,27,0.01
2013-4-19,74.0,73.3,72.0,71.0,68.9,67.0,92,86,79,0.00,40.00,22,17,29,0.52
2013-4-20,78.0,74.8,71.0,70.0,67.6,65.0,89,78,70,0.00,40.00,15,10,20,0.01
2013-4-21,77.0,72.9,67.0,71.0,68.0,65.0,93,85,75,0.00,40.00,8,5,11,0.03
2013-4-22,77.0,72.5,69.0,71.0,69.1,67.0,94,89,81,0.00,40.00,10,5,15,0.26
2013-4-23,79.0,72.6,68.0,72.0,68.1,66.0,92,86,69,0.00,40.00,12,5,20,0.41
2013-4-24,78.0,74.5,68.0,72.0,68.8,65.0,92,83,72,0.00,40.00,13,9,16,0.27
2013-4-25,79.0,75.8,72.0,71.0,68.6,67.0,92,78,71,0.00,40.00,17,13,22,0.03
2013-4-26,79.0,75.8,74.0,69.0,66.6,65.0,78,73,67,0.00,40.00,20,16,26,0.01
2013-4-27,80.0,75.7,71.0,68.0,66.6,65.0,84,74,65,0.00,40.00,16,12,21,0.01
2013-4-28,80.0,74.4,68.0,72.0,67.7,64.0,89,80,69,0.00,40.00,14,6,18,0.00
2013-4-29,81.0,75.0,69.0,71.0,68.2,66.0,90,80,67,0.00,40.00,14,5,21,0.00
2013-4-30,79.0,76.2,69.0,74.0,70.6,66.0,91,83,72,0.00,40.00,12,6,15,0.05
2013-5-1,80.0,76.8,74.0,70.0,68.8,67.0,84,76,70,0.00,40.00,18,14,25,0.05
2013-5-2,79.0,76.2,74.0,71.0,68.6,65.0,87,78,71,0.00,40.00,17,14,24,0.02
2013-5-3,80.0,76.0,72.0,69.0,67.0,65.0,83,74,68,0.00,40.00,15,11,20,0.02
2013-5-4,80.0,74.9,70.0,69.0,67.5,66.0,88,78,64,0.00,40.00,11,6,14,0.00
2013-5-5,79.0,73.0,69.0,70.0,68.2,66.0,94,85,71,0.00,40.00,12,5,16,0.68
2013-5-6,77.0,73.0,69.0,69.0,64.2,61.0,94,75,60,0.00,40.00,9,6,13,0.57
2013-5-7,77.0,72.7,67.0,67.0,63.4,61.0,90,74,60,0.00,40.00,10,6,15,0.00
2013-5-8,78.0,72.0,64.0,68.0,63.7,61.0,90,76,63,0.00,40.00,10,5,13,0.00
2013-5-9,79.0,73.6,67.0,70.0,66.6,64.0,90,79,68,0.00,40.00,9,6,13,0.01
2013-5-10,80.0,74.3,71.0,70.0,66.3,-99.9,93,80,67,0.00,40.00,16,8,21,0.11
2013-5-11,79.0,75.2,73.0,68.0,65.9,64.0,84,73,65,0.00,40.00,19,14,25,0.03
2013-5-12,75.0,73.2,70.0,69.0,67.1,64.0,93,81,70,0.00,40.00,20,17,27,0.40
2013-5-13,79.0,75.8,74.0,71.0,69.0,67.0,88,80,71,0.00,40.00,20,18,28,0.05
2013-5-14,79.0,76.8,74.0,72.0,69.9,69.0,88,80,75,0.00,40.00,20,18,28,0.01
2013-5-15,79.0,76.9,75.0,70.0,69.1,68.0,81,77,72,0.00,40.00,20,17,24,0.00
2013-5-16,80.0,72.8,75.0,69.0,50.5,-99.9,81,75,68,0.00,40.00,20,17,24,0.00
2013-5-17,79.0,75.9,74.0,69.0,62.2,-99.9,78,73,66,0.00,40.00,18,15,23,0.00
2013-5-18,79.0,76.8,74.0,70.0,67.8,66.0,79,74,68,0.00,40.00,15,11,18,0.00
2013-5-19,80.0,75.0,69.0,72.0,66.7,62.0,91,76,66,0.00,40.00,20,9,25,0.00
2013-5-20,78.0,73.1,67.0,65.0,61.0,56.0,85,67,48,0.00,40.00,10,5,14,0.00
2013-5-21,80.0,72.0,65.0,66.0,62.8,60.0,88,74,54,0.00,40.00,8,4,12,8.52
2013-5-22,80.0,74.5,66.0,70.0,67.4,64.0,92,79,66,0.00,40.00,7,4,11,11.42
2013-5-23,82.0,76.4,68.0,74.0,70.2,65.0,92,82,74,0.00,40.00,14,8,18,0.00
2013-5-24,81.0,78.0,75.0,72.0,70.0,67.0,84,77,70,0.00,40.00,17,13,24,0.00
2013-5-25,81.0,77.5,75.0,72.0,69.4,67.0,82,77,71,0.00,40.00,19,17,28,0.00
2013-5-26,80.0,77.3,75.0,71.0,68.2,66.0,82,74,65,0.00,40.00,21,18,28,0.00
2013-5-27,80.0,77.4,75.0,69.0,68.0,67.0,79,73,64,0.00,40.00,19,16,26,0.00
2013-5-28,80.0,76.7,74.0,72.0,70.0,68.0,86,80,72,0.00,40.00,18,14,23,0.02
2013-5-29,81.0,75.4,72.0,73.0,71.1,69.0,94,87,77,0.00,40.00,14,9,23,0.01
2013-5-30,80.0,77.4,75.0,73.0,70.7,69.0,86,80,73,0.00,40.00,17,13,22,0.00
2013-5-31,81.0,77.7,75.0,72.0,71.3,70.0,89,81,73,0.00,40.00,17,15,25,0.00
2013-6-1,81.0,77.6,75.0,73.0,71.0,70.0,92,80,70,0.00,40.00,20,17,27,0.01
2013-6-2,81.0,77.4,74.0,74.0,70.8,66.0,94,80,66,0.00,40.00,23,19,31,0.01
2013-6-3,81.0,78.0,76.0,70.0,67.5,65.0,78,71,63,0.00,40.00,24,20,31,0.00
2013-6-4,81.0,77.5,76.0,70.0,68.3,67.0,80,73,64,0.00,40.00,22,19,30,0.00
2013-6-5,80.0,77.2,74.0,71.0,67.8,65.0,90,73,65,0.00,40.00,20,16,26,0.01
2013-6-6,80.0,77.5,75.0,69.0,67.0,65.0,78,70,62,0.00,40.00,20,18,30,0.01
2013-6-7,80.0,77.0,75.0,69.0,67.8,66.0,82,74,66,0.00,40.00,21,18,28,0.00
2013-6-8,81.0,77.7,75.0,69.0,67.8,67.0,77,72,64,0.00,40.00,19,16,25,0.00
2013-6-9,80.0,77.3,75.0,70.0,68.7,67.0,80,75,68,0.00,40.00,17,16,22,0.00
2013-6-10,80.0,77.2,75.0,70.0,68.7,67.0,80,75,71,0.00,40.00,18,16,23,0.00
2013-6-11,81.0,77.3,74.0,72.0,69.4,67.0,93,77,69,0.00,40.00,19,16,26,0.00
2013-6-12,81.0,77.6,74.0,72.0,69.5,67.0,87,76,69,0.00,40.00,21,19,32,0.04
2013-6-13,79.0,76.3,74.0,72.0,69.7,69.0,87,80,73,0.00,40.00,25,21,33,0.09
2013-6-14,81.0,77.5,76.0,69.0,68.6,67.0,80,74,67,0.00,40.00,21,18,28,0.01
2013-6-15,80.0,76.9,75.0,70.0,68.9,68.0,81,77,70,0.00,40.00,19,16,27,0.05
2013-6-16,80.0,77.1,75.0,70.0,68.5,67.0,81,75,67,0.00,40.00,19,16,25,0.01
2013-6-17,80.0,77.3,75.0,70.0,69.0,68.0,81,76,70,0.00,40.00,21,18,29,0.02
2013-6-18,81.0,77.5,75.0,72.0,69.8,68.0,85,77,70,0.00,40.00,20,18,31,0.01
2013-6-19,81.0,77.5,75.0,71.0,68.9,67.0,82,75,69,0.00,40.00,16,15,25,0.01